Regional Weather Roundup
Issued by NWS Goodland, KS

Home | Current Version | Previous Version | Graphics & Text | Print | Product List | Glossary On
Versions: 1 2 3 4 5 6 7 8 9 10 11 12 13 14 15 16 17 18 19 20 21 22 23 24 25 26 27 28 29 30 31 32 33 34 35 36 37 38 39 40 41 42 43 44 45 46 47 48 49 50
000
ASUS43 KGLD 231108
RWRGLD

GOODLAND FORECAST AREA HOURLY WEATHER ROUNDUP
NATIONAL WEATHER SERVICE GOODLAND KS
500 AM MDT TUE SEP 23 2014

...OFFICIAL OBSERVATIONS...

CITY           SKY/WX    TMP DP  RH WIND       PRES   REMARKS
GOODLAND KS    PTCLDY    56  55  97 SE6       30.07R
HILL CITY KS   MOCLDY    59  56  89 S7        30.06S
IMPERIAL NEB   PTCLDY    58  54  86 S7        30.03S
MCCOOK NEB     CLEAR     56  54  93 SE7       30.05F
AKRON CO       MOCLDY    55  53  93 SW7       30.08F
BURLINGTON CO  PTCLDY    56  54  93 CALM      30.07S
LIMON CO       CLEAR     48  46  93 W6        30.14S
$$

...UNOFFICIAL OBSERVATIONS...

CITY           SKY/WX    TMP DP  RH WIND       PRES   REMARKS
COLBY KS       PTCLDY    59  59 100 SE8       30.06S
GOVE KS          N/A     59  32  36 MISG        N/A
NORTON KS      CLEAR     55  52  88 S12       30.05S
SHARON SPRINGS   N/A     60  55  85 S8          N/A
TRIBUNE KS     CLEAR     61  61 100 SE7       30.07S
WAKEENEY KS      N/A     60  52  73 MISG        N/A
KIT CARSON CO    N/A     54  50  87 CALM        N/A
YUMA CO          N/A     56  56  99 CALM        N/A
$$


USA.gov is the U.S. government's official web portal to all federal, state and local government web resources and services.